Tracking 28790 objects as of 19-Apr-2024
HD Live streaming from Space Station
objects crossing your sky now

NOAA 16 DEB

Track NOAA 16 DEB now!
10-day predictions


NORAD ID: 41418
Int'l Code: 2000-055KX
Perigee: 761.4 km
Apogee: 809.9 km
Inclination: 99.0 °
Period: 100.4 minutes
Semi major axis: 7156 km
RCS: Unknown
Launch date: September 21, 2000
Source: United States (US)
Launch site: AIR FORCE WESTERN TEST RANGE (AFWTR)

Note: This is SATELLITE DEBRIS
Your satellite tracking list
Your tracking list is empty




NASA's NSSDC Master Catalog

Two Line Element Set (TLE):
1 41418U 00055KX  24109.44786056  .00013713  00000-0  48922-2 0  9996
2 41418  99.0490 288.1812 0033843 292.4345  67.3254 14.33958866423291
Source of the keplerian elements: AFSPC